| time (UTC) | temp F | wind direction | speed MPH | gust MPH | rain 1hr in | rain 24hr in | rain mn in | humidity % | barometer mb |
| 20260505163028 | 80 | 217 | 2.0 | 6.0 | 0.00 | 0.02 | 0.02 | 36 | 1009.0 |
| 20260505161530 | 78 | 264 | 2.0 | 7.0 | 0.00 | 0.02 | 0.02 | 33 | 1009.2 |
| 20260505153044 | 76 | 165 | 1.0 | 8.0 | 0.00 | 0.02 | 0.02 | 39 | 1009.7 |
| 20260505124531 | 63 | 0 | 0.0 | 1.0 | 0.00 | 0.02 | 0.02 | 53 | 1010.5 |
| 20260505123030 | 62 | 151 | 0.0 | 0.0 | 0.00 | 0.02 | 0.02 | 55 | 1010.3 |
| 20260505121531 | 60 | 0 | 0.0 | 0.0 | 0.00 | 0.02 | 0.02 | 59 | 1010.6 |
| 20260505120030 | 58 | 0 | 0.0 | 1.0 | 0.00 | 0.02 | 0.02 | 61 | 1010.6 |
| 20260505114537 | 57 | 0 | 0.0 | 1.0 | 0.00 | 0.02 | 0.02 | 64 | 1010.7 |
| 20260505113029 | 54 | 0 | 0.0 | 1.0 | 0.00 | 0.02 | 0.02 | 66 | 1010.4 |
| 20260505111533 | 52 | 0 | 0.0 | 0.0 | 0.00 | 0.02 | 0.02 | 69 | 1010.2 |
| 20260505101532 | 48 | 0 | 0.0 | 1.0 | 0.00 | 0.02 | 0.02 | 67 | 1010.1 |
| 20260505100041 | 48 | 0 | 0.0 | 0.0 | 0.00 | 0.02 | 0.02 | 67 | 1010.0 |
| 20260505094531 | 48 | 0 | 0.0 | 0.0 | 0.01 | 0.02 | 0.02 | 67 | 1009.7 |
| 20260505093033 | 49 | 0 | 0.0 | 0.0 | 0.02 | 0.02 | 0.02 | 68 | 1009.6 |
| 20260505091527 | 49 | 0 | 0.0 | 0.0 | 0.02 | 0.02 | 0.02 | 69 | 1009.4 |
| 20260505090048 | 50 | 0 | 0.0 | 0.0 | 0.02 | 0.02 | 0.02 | 71 | 1009.4 |
| 20260505084536 | 50 | 0 | 0.0 | 0.0 | 0.01 | 0.01 | 0.01 | 71 | 1009.5 |
| 20260505083040 | 50 | 0 | 0.0 | 0.0 | 0.00 | 0.00 | 0.00 | 69 | 1010.1 |
| 20260505081548 | 50 | 0 | 0.0 | 0.0 | 0.00 | 0.00 | 0.00 | 68 | 1010.2 |
| 20260505080038 | 49 | 0 | 0.0 | 0.0 | 0.00 | 0.00 | 0.00 | 67 | 1009.7 |
| 20260505074527 | 49 | 0 | 0.0 | 0.0 | 0.00 | 0.00 | 0.00 | 68 | 1009.5 |
| 20260505073030 | 49 | 0 | 0.0 | 0.0 | 0.00 | 0.00 | 0.00 | 67 | 1009.2 |
| 20260505071531 | 49 | 0 | 0.0 | 0.0 | 0.00 | 0.00 | 0.00 | 65 | 1009.3 |
| 20260505070031 | 49 | 0 | 0.0 | 0.0 | 0.00 | 0.00 | 0.00 | 66 | 1009.4 |
| 20260505064527 | 50 | 0 | 0.0 | 0.0 | 0.00 | 0.00 | 0.00 | 65 | 1009.4 |
| 20260505063035 | 51 | 0 | 0.0 | 0.0 | 0.00 | 0.00 | 0.00 | 64 | 1009.4 |
| 20260505061532 | 51 | 0 | 0.0 | 1.0 | 0.00 | 0.00 | 0.00 | 62 | 1009.5 |
| 20260505060028 | 51 | 0 | 0.0 | 0.0 | 0.00 | 0.00 | 0.00 | 64 | 1009.6 |
| 20260505054530 | 51 | 0 | 0.0 | 0.0 | 0.00 | 0.00 | 0.00 | 63 | 1009.7 |
| 20260505053030 | 51 | 0 | 0.0 | 0.0 | 0.00 | 0.00 | 0.00 | 62 | 1009.7 |
| 20260505051530 | 51 | 0 | 0.0 | 0.0 | 0.00 | 0.00 | 0.00 | 62 | 1009.6 |
| 20260505041530 | 52 | 0 | 0.0 | 0.0 | 0.00 | 0.00 | 0.00 | 59 | 1009.2 |
| 20260505040029 | 52 | 0 | 0.0 | 1.0 | 0.00 | 0.00 | 0.00 | 58 | 1009.3 |
| 20260505034529 | 52 | 0 | 0.0 | 0.0 | 0.00 | 0.00 | 0.00 | 59 | 1009.1 |
| 20260505033035 | 53 | 0 | 0.0 | 0.0 | 0.00 | 0.00 | 0.00 | 57 | 1009.2 |
| 20260505031530 | 53 | 0 | 0.0 | 0.0 | 0.00 | 0.00 | 0.00 | 56 | 1009.3 |
| 20260505030028 | 54 | 0 | 0.0 | 0.0 | 0.00 | 0.00 | 0.00 | 55 | 1009.4 |
| 20260505024550 | 54 | 0 | 0.0 | 0.0 | 0.00 | 0.00 | 0.00 | 54 | 1009.4 |
| 20260505023038 | 55 | 0 | 0.0 | 0.0 | 0.00 | 0.00 | 0.00 | 53 | 1009.6 |
| 20260505021544 | 56 | 0 | 0.0 | 0.0 | 0.00 | 0.00 | 0.00 | 51 | 1009.6 |
| 20260505020030 | 56 | 0 | 0.0 | 0.0 | 0.00 | 0.00 | 0.00 | 50 | 1009.7 |
| 20260505014530 | 57 | 0 | 0.0 | 0.0 | 0.00 | 0.00 | 0.00 | 48 | 1009.6 |
| 20260505013029 | 58 | 0 | 0.0 | 1.0 | 0.00 | 0.00 | 0.00 | 47 | 1009.6 |
| 20260505011544 | 58 | 0 | 0.0 | 1.0 | 0.00 | 0.00 | 0.00 | 47 | 1009.5 |
| 20260505010030 | 59 | 0 | 0.0 | 1.0 | 0.00 | 0.00 | 0.00 | 46 | 1009.2 |
| 20260505004537 | 60 | 0 | 0.0 | 0.0 | 0.00 | 0.00 | 0.00 | 43 | 1009.1 |
| 20260505003028 | 62 | 0 | 0.0 | 2.0 | 0.00 | 0.00 | 0.00 | 41 | 1009.0 |
| 20260505001532 | 63 | 0 | 0.0 | 4.0 | 0.00 | 0.00 | 0.00 | 40 | 1008.6 |
| 20260505000029 | 63 | 0 | 0.0 | 1.0 | 0.00 | 0.00 | 0.00 | 37 | 1008.5 |
| 20260504234528 | 64 | 0 | 0.0 | 1.0 | 0.00 | 0.00 | 0.00 | 37 | 1008.3 |
| 20260504233028 | 65 | 238 | 0.0 | 3.0 | 0.00 | 0.00 | 0.00 | 35 | 1008.2 |
| 20260504231528 | 67 | 0 | 1.0 | 4.0 | 0.00 | 0.00 | 0.00 | 33 | 1008.1 |
| 20260504230101 | 68 | 269 | 1.0 | 4.0 | 0.00 | 0.00 | 0.00 | 31 | 1007.9 |
| 20260504224527 | 68 | 239 | 1.0 | 4.0 | 0.00 | 0.00 | 0.00 | 31 | 1007.8 |
| 20260504223034 | 69 | 93 | 0.0 | 4.0 | 0.00 | 0.00 | 0.00 | 32 | 1007.8 |
| 20260504221536 | 70 | 245 | 0.0 | 3.0 | 0.00 | 0.00 | 0.00 | 30 | 1007.8 |
| 20260504220030 | 71 | 279 | 1.0 | 6.0 | 0.00 | 0.00 | 0.00 | 28 | 1007.9 |
| 20260504214528 | 72 | 250 | 2.0 | 7.0 | 0.00 | 0.00 | 0.00 | 28 | 1007.9 |
| 20260504213027 | 72 | 98 | 3.0 | 7.0 | 0.00 | 0.00 | 0.00 | 28 | 1007.8 |
| 20260504211528 | 72 | 225 | 1.0 | 5.0 | 0.00 | 0.00 | 0.00 | 27 | 1008.0 |
| 20260504210030 | 72 | 112 | 1.0 | 5.0 | 0.00 | 0.00 | 0.00 | 27 | 1008.2 |
| 20260504204536 | 73 | 312 | 2.0 | 10.0 | 0.00 | 0.00 | 0.00 | 26 | 1008.3 |
| 20260504203032 | 73 | 211 | 1.0 | 10.0 | 0.00 | 0.00 | 0.00 | 26 | 1008.2 |
| 20260504201527 | 72 | 354 | 2.0 | 6.0 | 0.00 | 0.00 | 0.00 | 27 | 1008.5 |
| 20260504200029 | 72 | 0 | 1.0 | 6.0 | 0.00 | 0.00 | 0.00 | 30 | 1008.5 |
| 20260504194602 | 70 | 199 | 2.0 | 6.0 | 0.00 | 0.00 | 0.00 | 28 | 1008.7 |
| 20260504193028 | 71 | 125 | 2.0 | 5.0 | 0.00 | 0.00 | 0.00 | 28 | 1008.8 |
| 20260504191527 | 72 | 73 | 3.0 | 8.0 | 0.00 | 0.00 | 0.00 | 25 | 1008.9 |
| 20260504190035 | 71 | 184 | 2.0 | 10.0 | 0.00 | 0.00 | 0.00 | 28 | 1009.1 |
| 20260504184535 | 72 | 236 | 2.0 | 10.0 | 0.00 | 0.00 | 0.00 | 27 | 1009.5 |
| 20260504183032 | 71 | 213 | 3.0 | 7.0 | 0.00 | 0.00 | 0.00 | 26 | 1009.5 |
| 20260504181530 | 71 | 190 | 2.0 | 9.0 | 0.00 | 0.00 | 0.00 | 27 | 1009.7 |
| 20260504180028 | 70 | 240 | 2.0 | 7.0 | 0.00 | 0.00 | 0.00 | 27 | 1009.9 |
| 20260504174530 | 69 | 304 | 3.0 | 14.0 | 0.00 | 0.00 | 0.00 | 26 | 1009.9 |
| 20260504173029 | 69 | 252 | 3.0 | 8.0 | 0.00 | 0.00 | 0.00 | 29 | 1010.2 |
| 20260504171530 | 69 | 117 | 4.0 | 12.0 | 0.00 | 0.00 | 0.00 | 32 | 1010.5 |